www.pogodaiklimat.ru
Время
(UTC), дата
18 30.05
21 30.05
00 31.05
03 31.05
06 31.05
09 31.05
12 31.05
15 31.05
18 31.05
21 31.05
00 1.06
03 1.06
06 1.06
09 1.06
12 1.06
15 1.06
18 1.06
21 1.06
00 2.06
03 2.06
06 2.06
09 2.06
12 2.06
15 2.06
18 2.06
21 2.06
00 3.06
03 3.06
06 3.06
09 3.06
12 3.06
15 3.06
18 3.06
21 3.06
00 4.06
03 4.06
06 4.06
09 4.06
12 4.06
15 4.06
18 4.06
21 4.06
00 5.06
03 5.06
06 5.06
09 5.06
12 5.06
15 5.06
18 5.06
21 5.06
00 6.06
03 6.06
06 6.06
09 6.06
12 6.06
15 6.06
Ветер
(напр.,м/с)
Видим. Явления Облачность Т
(С)
Тd
(С)
f
(%)
Тe
(С)
Тes
(С)
Комфортность P
(гПа)
Po
(гПа)
Тmin
(С)
Tmax
(С)
R
(мм)
R24
(мм)
S
(см)
Ю 1 10 км {ливн. осадки} 6/0
[Ac trans Ci fib]
+13.0 +11.7 92 +13 +13 холодно 1002.2 988.0 +17.7 9
ЮВ 1 н/о дымка 8/0
[Ac trans Ci fib]
+12.6 +11.7 94 +13 +13 прохладно 1003.8 989.6
Ю 1 н/о дымка 8/0
[Ac trans Ci fib]
+11.5 +10.7 95 +11 +11 прохладно 1005.2 990.9
штиль 0 4000 м дымка 6/0
[Ac trans Ci fib]
+10.3 +9.7 96 +9 +10 холодно 1006.2 991.8
ЮВ 2 10 км 8/8 750 м
[Cb cap]
+12.8 +8.6 76 +12 +14 прохладно 1007.0 992.7 +9.4
Ю 2 10 км 6/6 900 м
[Cb cap]
+16.1 +10.5 69 +16 +23 прохладно 1008.2 994.1
Ю 3 10 км 8/8 900 м
[Cb cap]
+17.6 +9.7 60 +18 +20 прохладно 1007.9 993.9
Ю 1 10 км 6/3 1000 м
[Cu hum Ac trans]
+17.4 +9.2 59 +18 +21 по сезону 1007.8 993.7
штиль 0 10 км 6/3 1000 м
[Cb cap Ac trans]
+14.4 +10.8 79 +14 +14 прохладно 1008.2 994.0 +19.2
С 4 н/о 8/6 800 м
[Cb cap Ac trans]
+12.3 +10.0 86 +10 +10 холодно 1008.9 994.6
С 4 н/о слаб. ливневой дождь 10/8 700 м
[Cb cap Ac trans]
+9.9 +8.9 93 +7 +7 холодно 1009.2 994.8
Ю 4 10 км {ливн. осадки} 8/8 750 м
[Cb cap]
+9.7 +7.8 88 +7 +7 очень
холодно
1009.4 994.9
С 5 10 км {ливн. осадки} 10/10 700 м
[Cb cap]
+10.5 +8.0 84 +8 +8 очень
холодно
1009.8 995.4 +9.3 2
С 7 10 км 10/10 930 м
[Cb cap]
+13.0 +5.6 61 +11 +11 очень
холодно
1009.3 995.0
С 7 10 км 9/6 1140 м
[Cb cap Ac trans]
+14.8 +5.3 53 +13 +14 очень
холодно
1009.0 994.8
СВ 6 10 км 8/3 1000 м
[Cb cap Ac und]
+12.6 +5.8 63 +10 +11 очень
холодно
1009.0 994.7
С 3 10 км 9/6 1000 м
[Cb calv Ac trans Ci fib]
+9.9 +6.7 80 +8 +8 очень
холодно
1008.3 993.9 +14.8
СЗ 3 н/о дымка 10/4 720 м
[Cb cap Ac trans]
+9.1 +8.1 93 +7 +7 очень
холодно
1007.0 992.5
СЗ 2 н/о слаб. ливневой дождь 10/6 600 м
[Cb cap Ac trans]
+8.9 +8.3 96 +7 +7 холодно 1005.1 990.7
В 1 4000 м дымка {ливн. осадки} 10/10 300 м
[St]
+8.7 +8.1 96 +8 +8 холодно 1004.6 990.2
Ю 3 10 км {ливн. осадки} 8/8 420 м
[St]
+10.3 +7.8 84 +8 +9 очень
холодно
1005.0 990.6 +8.0 0.0
Ю 5 10 км 8/8 1000 м
[Cu hum]
+13.5 +6.5 63 +12 +13 холодно 1005.5 991.3
ЮВ 4 20 км 9/9 1000 м
[Cu Sc]
+13.4 +5.6 59 +12 +13 очень
холодно
1006.5 992.3
Ю 4 10 км 9/9 1000 м
[Cb calv]
+13.4 +6.6 63 +12 +12 очень
холодно
1006.4 992.2
В 2 10 км 3/3 1500 м
[Sc]
+12.8 +7.7 71 +12 +12 холодно 1006.7 992.4 +15.0
Ю 1 н/о 3/3 1500 м
[Sc]
+10.7 +7.8 82 +10 +10 холодно 1006.9 992.5
штиль 0 н/о дымка ясно +7.9 +6.8 93 +7 +7 холодно 1006.5 992.0
штиль 0 4000 м дымка ясно +8.1 +7.0 93 +7 +8 очень
холодно
1006.3 991.8
ЮВ 3 10 км ясно +14.5 +8.1 65 +14 +20 прохладно 1006.5 992.3 +7.5
Ю 4 20 км 9/8 1000 м
[Cu med, cong Ci fib]
+17.2 +6.5 49 +17 +19 прохладно 1006.5 992.4
ЮВ 4 20 км 9/8 1000 м
[Cb calv Ac trans Ci fib]
+17.4 +7.1 51 +17 +19 прохладно 1005.9 991.9
ЮВ 3 20 км 9/4 1000 м
[Cu med, cong Ac trans Ci fib]
+19.0 +8.0 49 +20 +21 по сезону 1005.1 991.2
ЮВ 1 10 км {ливн. осадки} 8/3 1000 м
[Cb calv Ac trans Ci fib]
+14.0 +9.1 72 +14 +14 прохладно 1005.5 991.3 +19.5 0.0
штиль 0 н/о 9/0
[Ac trans Ci fib]
+10.1 +8.5 90 +9 +9 холодно 1005.5 991.1
штиль 0 н/о дымка 8/0
[Ac trans Ci fib]
+10.3 +9.1 92 +10 +10 прохладно 1004.9 990.5
Ю 1 4000 м дымка 6/0
[Ac trans Ci fib]
+9.5 +8.9 96 +9 +9 холодно 1004.7 990.3
Ю 2 10 км ?/? +15.3 +9.1 66 +15 +15 по сезону 1004.3 990.2 +9.0
ЮЗ 4 10 км 5/5 1000 м
[Cu hum]
+17.7 +8.4 54 +17 +23 прохладно 1004.4 990.4
Ю 3 20 км {ливн. осадки} 8/5 1000 м
[Cb cap Ci fib]
+18.4 +8.2 51 +19 +24 по сезону 1003.6 989.6
Ю 1 10 км {гроза, ливн. осадки} 8/6 1000 м
[Cb cap Ci fib]
+16.5 +10.9 69 +17 +19 прохладно 1003.9 989.9
Ю 2 10 км {гроза, ливн. осадки} 8/5 1000 м
[Cb cap Ac trans]
+14.8 +9.6 71 +15 +15 прохладно 1004.6 990.5 +19.7 3
ЮВ 1 н/о 3/0
[Ac trans]
+10.4 +9.4 94 +10 +10 холодно 1005.3 990.9
З 2 н/о слаб. ливневой дождь 8/8 750 м
[Cb cap]
+10.5 +9.7 95 +9 +9 холодно 1005.5 991.1
ЮВ 1 4000 м дымка {ливн. осадки} 8/8 800 м
[Cb cap]
+10.6 +10.0 96 +10 +10 холодно 1004.6 990.3
Ю 1 10 км {ливн. осадки} 8/8 1000 м
[Cb calv]
+15.2 +13.0 87 +16 +18 по сезону 1005.5 991.4 +10.2 8
ЮЗ 3 10 км 8/8 1170 м
[Sc]
+17.8 +13.0 73 +18 +21 по сезону 1006.4 992.4
Ю 3 10 км 9/6 1000 м
[Cb calv As trans Ci fib]
+20.6 +14.8 69 +24 +27 комфорт 1006.9 993.0
Ю 3 10 км 9/3 1000 м
[Sc Ac trans Ci fib]
+20.1 +14.1 68 +23 +24 комфорт 1007.1 993.2
штиль 0 10 км 4/3 1000 м
[Sc Ac trans]
+19.2 +16.0 82 +21 +21 комфорт 1007.5 993.6 +21.7
Ю 1 н/о дымка 4/0
[Ac trans]
+17.0 +15.5 91 +18 +18 тепло 1008.0 994.0
Ю 1 н/о дымка 9/0
[Ac trans Ci fib]
+15.0 +14.1 94 +15 +15 тепло 1008.4 994.2
Ю 2 4000 м дымка 9/0
[Ac trans Ci fib]
+15.0 +13.8 93 +15 +15 по сезону 1009.0 994.8
ЮВ 1 10 км 10/0
[Ac trans Ci fib]
+19.2 +15.3 78 +22 +28 комфорт 1009.1 995.1 +13.5
Ю 3 10 км 10/0
[Ac trans Cs]
+23.8 +17.6 68 +28 +37 душно 1009.5 995.8
Ю 3 10 км 4/0
[Ac lent]
+26.8 +18.4 60 +32 +40 очень
душно
1009.9 996.3
Ю 5 10 км 8/6 1000 м
[Cb calv Ac trans]
+25.8 +18.4 64 +31 +31 очень
душно
1009.5 995.9
Местоположение метеостанции Чернигов (Черниговская область, Украина): широта 51.47 долгота 31.25 высота над уровнем моря 141 м.
В архиве по умолчанию представлена погода в Чернигове за последнюю неделю. Архивные данные за месяц целиком и за предыдущие месяцы, начиная с января 2011 года, Вы можете получить, выбрав интересующий диапазон дат из раскрывающегося списка и нажав кнопку "Найти!".
*Определитесь, кто Вы:
Внимание! Время в таблицах - всемирное. Для получения местного времени необходимо прибавить поправку, которая равна 2 ч.
Смотрите также архив погоды в соседних городах и на ближайших метеорологических станциях:
Партнеры нашего сайта:      
Пояснения к столбцам:
  • Ветер - указаны скорость ветра в м/с - средняя за 10 мин, порывы в срок и между сроками (в фигурных скобках) и направление, откуда дует ветер: С - северный,
  • СВ - северо-восточный, В - восточный, ЮВ - юго-восточный, Ю - южный, ЮЗ - юго-западный, З - западный, СЗ - северо-западный.
  • Видимость - горизонтальная дальность видимости в метрах или километрах. При видимости от 1 до 10 км при отсутствии осадков обычно наблюдается дымка, при ухудшении видимости до 1 км и менее - туман. В сухую погоду видимость может ухудшаться дымом, пылью или мглою.
  • Явления - указаны атмосферные явления, наблюдавшиеся в срок или в последний час перед сроком; фигурными скобками обозначены явления, наблюдавшиеся между сроками (за 1-3 часа до срока); квадратными скобками обозначены град или гололедные отложения с указанием их диаметра в мм.
  • Облачность - указаны через наклонную черту общая и нижняя облачность в баллах и высота нижней границы облаков в метрах; квадратными скобками обозначены формы облаков: Ci - перистые, Cs - перисто-слоистые, Cc - перисто-кучевые, Ac - высококучевые, As - высокослоистые, Sc - слоисто-кучевые, Ns - слоисто-дождевые, Cu - кучевые, Cb - кучево-дождевые. Подробнее классификацию облаков см. в Атласе облаков (PDF).
  • T - Температура воздуха - температура, измеренная на высоте 2 м над землей.
  • Td - Температура точки росы - температура, при понижении до которой содержащийся в воздухе водяной пар достигнет насыщения.
  • f - Относительная влажность воздуха - влажноcть воздуха, измеренная на высоте 2 м над землей.
  • Te - Эффективная температура - температура, которую ощущает одетый по сезону человек в тени. Характеристика душности погоды. При расчете учитывается влияние влажности воздуха и скорости ветра на теплоощущения человека.
  • Tes - Эффективная температура на солнце - температура, которую ощущает человек, с поправкой на солнечный нагрев. Характеристика знойности погоды. Зависит от высоты солнца над горизонтом, облачности и скорости ветра. Ночью, в пасмурную погоду, а также при ветре 12 м/с и более поправка равна нулю.
  • P - Атмосферное давление - приведенное к уровню моря атмосферное давление.
  • Po - Атмосферное давление - измеренное на уровне метеостанции атмосферное давление.
  • Tmin - Минимальная температура - минимум температуры воздуха на высоте 2 м над землей.
  • Tmax - Максимальная температура - максимум температуры воздуха на высоте 2 м над землей.
  • R - Количество осадков - Количество выпавших осадков за период времени, мм. При наведении курсора мыши на число - период времени, за который выпало указанное количество осадков.
  • R24 - Количество осадков - Количество выпавших осадков за 24 часа, мм.
  • S - Снежный покров - Высота снежного покрова, см. При наведении курсора мыши на число - состояние снежного покрова и степень покрытия местности в баллах.